GEFSSE_prec_meanprecacc_186.txt.gz
Total_Precipitation_Accumulation
1.06 0.92 1.52 1.62 1.45 1.31 1.28 1.30 1.32 1.35 1.36 1.32 1.12 0.98 0.83 0.76 0.75 0.71 0.63 0.60 0.66 0.64 0.62 0.58 0.56 0.56 0.50 0.50 0.50 0.52 0.57 0.64 0.68 0.70 0.75 0.79 0.70 0.73 0.97 1.22 1.37 1.70 1.30
0.85 0.92 1.61 1.67 1.47 1.28 1.22 1.24 1.30 1.33 1.39 1.28 1.15 1.02 0.86 0.75 0.70 0.65 0.53 0.49 0.53 0.57 0.55 0.57 0.59 0.59 0.58 0.62 0.67 0.70 0.65 0.62 0.74 0.85 0.97 1.00 0.90 0.85 0.85 1.10 1.27 1.53 1.27
0.87 0.93 1.35 1.72 1.57 1.41 1.29 1.28 1.34 1.32 1.38 1.24 1.16 0.99 0.84 0.71 0.69 0.68 0.59 0.55 0.58 0.53 0.49 0.53 0.63 0.65 0.69 0.71 0.74 0.78 0.72 0.66 0.79 1.02 1.38 1.99 1.44 0.97 0.97 1.07 1.14 1.06 1.13
0.83 0.86 1.21 1.78 1.59 1.50 1.45 1.47 1.38 1.37 1.45 1.26 1.12 0.97 0.84 0.78 0.77 0.78 0.86 0.89 0.75 0.57 0.52 0.52 0.64 0.67 0.65 0.69 0.77 0.74 0.68 0.69 0.88 1.05 1.50 2.06 1.87 1.18 1.13 1.19 1.24 1.05 1.04
0.83 0.93 1.38 1.79 1.56 1.44 1.45 1.51 1.42 1.45 1.43 1.28 1.10 0.90 0.83 0.85 0.93 1.03 1.07 0.96 0.75 0.61 0.57 0.58 0.65 0.69 0.65 0.62 0.71 0.74 0.71 0.79 0.96 1.04 1.48 1.96 2.14 1.54 1.23 1.24 1.27 1.13 1.12
0.96 0.94 1.36 1.75 1.59 1.44 1.41 1.42 1.39 1.37 1.38 1.31 1.09 0.90 0.85 0.84 0.85 0.93 1.01 0.94 0.77 0.64 0.58 0.64 0.70 0.72 0.68 0.65 0.69 0.76 0.75 0.85 0.86 1.12 1.54 1.81 2.06 1.52 1.15 1.16 1.31 1.26 1.28
0.94 0.94 1.22 1.64 1.51 1.30 1.31 1.40 1.45 1.42 1.37 1.29 1.07 0.96 0.94 0.90 0.84 0.90 0.91 0.85 0.70 0.61 0.61 0.67 0.71 0.76 0.71 0.68 0.67 0.68 0.74 0.69 0.67 1.03 1.41 1.73 1.67 1.31 1.14 1.24 1.40 1.38 1.48
0.98 0.88 0.97 1.35 1.43 1.28 1.24 1.28 1.33 1.36 1.35 1.27 1.03 0.93 0.90 0.91 0.88 0.85 0.85 0.81 0.71 0.71 0.72 0.70 0.69 0.74 0.77 0.73 0.69 0.67 0.69 0.59 0.52 0.79 1.13 1.50 1.54 1.40 1.26 1.29 1.43 1.49 1.63
1.06 0.95 0.95 1.14 1.25 1.40 1.41 1.34 1.27 1.28 1.29 1.29 1.09 0.96 0.91 0.82 0.74 0.72 0.72 0.72 0.74 0.82 0.78 0.71 0.67 0.67 0.71 0.73 0.72 0.73 0.70 0.60 0.56 0.74 0.78 1.19 1.41 1.45 1.33 1.32 1.39 1.45 1.65
1.07 0.99 0.96 1.05 1.07 1.06 1.13 1.31 1.36 1.38 1.37 1.36 1.15 1.00 0.93 0.77 0.68 0.69 0.63 0.66 0.73 0.86 0.93 0.84 0.77 0.74 0.74 0.78 0.78 0.76 0.77 0.62 0.55 0.59 0.76 0.90 1.30 1.40 1.30 1.30 1.31 1.36 1.52
0.98 0.89 0.85 0.89 1.00 1.05 1.01 1.13 1.45 1.47 1.49 1.40 1.19 1.06 0.93 0.73 0.64 0.66 0.62 0.79 0.82 0.87 0.94 0.95 0.95 0.92 0.85 0.78 0.83 0.78 0.63 0.56 0.66 0.67 0.75 0.85 1.25 1.39 1.36 1.33 1.36 1.31 1.34
0.96 0.85 0.73 0.71 0.79 0.89 0.95 1.08 1.24 1.21 1.20 1.15 1.27 1.15 1.00 0.94 0.83 0.54 0.61 0.84 1.01 1.04 0.99 0.95 1.05 0.93 0.73 0.58 0.65 0.62 0.45 0.49 0.62 0.66 0.66 0.94 1.27 1.29 1.24 1.27 1.34 1.27 1.24
0.87 0.81 0.67 0.59 0.55 0.60 0.75 0.91 0.98 1.11 1.23 1.16 1.10 1.09 1.06 0.93 0.74 0.61 0.67 0.69 0.75 0.82 0.76 0.79 0.78 0.63 0.55 0.58 0.58 0.48 0.42 0.50 0.60 0.68 0.74 1.11 1.39 1.39 1.20 1.15 1.24 1.23 1.23
0.74 0.76 0.68 0.51 0.44 0.42 0.49 0.58 0.69 0.83 0.99 1.03 0.87 0.81 0.88 0.89 0.78 0.65 0.66 0.66 0.67 0.72 0.81 0.84 0.83 0.73 0.69 0.66 0.62 0.61 0.61 0.64 0.66 0.73 0.90 1.11 1.50 1.43 1.24 1.19 1.26 1.29 1.26
0.69 0.72 0.68 0.54 0.48 0.42 0.43 0.44 0.45 0.64 0.82 0.95 0.96 0.82 0.78 0.80 0.79 0.72 0.62 0.64 0.60 0.64 0.70 0.75 0.77 0.79 0.85 0.82 0.80 0.82 0.84 0.81 0.74 0.73 0.88 1.08 1.50 1.75 1.66 1.51 1.31 1.31 1.30
0.56 0.66 0.67 0.64 0.62 0.53 0.43 0.43 0.44 0.52 0.64 0.73 0.88 0.89 0.83 0.76 0.72 0.75 0.71 0.73 0.73 0.71 0.71 0.71 0.70 0.83 0.88 0.87 0.87 0.87 0.86 0.76 0.75 0.84 0.99 1.04 1.06 1.34 1.79 1.85 1.69 1.54 1.45
0.51 0.54 0.54 0.58 0.66 0.65 0.60 0.55 0.53 0.61 0.64 0.70 0.77 0.77 0.84 0.75 0.69 0.74 0.77 0.79 0.80 0.81 0.79 0.81 0.82 0.89 0.88 0.93 0.96 0.88 0.83 0.78 0.78 0.85 0.91 0.98 0.81 0.81 1.21 1.68 1.86 1.74 1.70
0.45 0.45 0.50 0.49 0.58 0.68 0.73 0.74 0.76 0.77 0.79 0.85 0.82 0.78 0.78 0.73 0.71 0.80 0.82 0.87 0.92 0.84 0.81 0.89 0.95 1.01 1.00 1.05 1.09 0.95 0.79 0.86 0.83 0.84 0.96 0.97 0.91 0.79 0.87 1.05 1.29 1.45 1.76
0.42 0.44 0.50 0.52 0.59 0.67 0.72 0.81 0.90 0.95 1.02 1.15 1.10 1.06 1.00 0.88 0.89 0.97 1.02 1.04 1.06 1.08 1.01 0.91 0.95 1.04 1.15 1.20 1.09 0.99 0.87 0.87 0.89 0.89 1.07 1.07 0.96 0.87 0.93 0.89 0.92 1.01 1.26
0.43 0.45 0.50 0.59 0.68 0.77 0.91 1.12 1.32 1.40 1.56 1.76 1.70 1.56 1.37 1.20 1.17 1.28 1.26 1.21 1.27 1.38 1.41 1.21 1.27 1.22 1.19 1.28 1.14 1.06 1.03 0.97 0.97 1.03 1.08 1.13 1.14 1.00 1.06 1.03 0.95 0.75 0.85
0.36 0.39 0.44 0.51 0.61 0.74 0.94 1.24 1.64 1.86 1.99 2.00 2.02 1.91 1.71 1.49 1.50 1.67 1.64 1.62 1.63 1.63 1.60 1.55 1.71 1.64 1.38 1.30 1.48 1.45 1.31 1.15 1.10 1.07 1.09 1.21 1.29 1.27 1.34 1.30 1.18 0.96 0.79
0.26 0.25 0.35 0.42 0.52 0.67 0.95 1.25 1.57 1.92 1.99 2.01 2.02 1.98 1.85 1.72 1.73 1.77 1.98 2.09 2.06 2.17 2.15 1.98 2.13 2.13 1.76 1.53 1.78 2.07 1.79 1.58 1.20 1.08 1.14 1.15 1.25 1.38 1.46 1.37 1.23 1.08 1.01
0.23 0.19 0.27 0.32 0.47 0.76 1.10 1.41 1.60 1.88 1.98 2.03 2.00 2.01 2.03 1.98 1.89 1.90 2.02 2.20 2.22 2.29 2.39 2.47 2.42 2.52 2.31 1.92 1.80 2.09 1.98 1.84 1.64 1.24 1.15 1.24 1.38 1.46 1.51 1.51 1.38 1.15 1.10
0.20 0.18 0.22 0.29 0.50 0.82 1.15 1.41 1.65 2.00 2.10 2.06 2.09 2.08 2.09 2.11 2.07 2.15 2.17 2.28 2.31 2.33 2.43 2.54 2.51 2.65 2.72 2.33 2.04 1.83 1.66 1.67 1.78 1.55 1.30 1.27 1.44 1.48 1.49 1.53 1.57 1.41 1.24
0.24 0.25 0.29 0.42 0.61 0.86 1.06 1.31 1.68 1.94 2.05 2.19 2.12 2.09 2.10 2.17 2.18 2.22 2.29 2.45 2.45 2.43 2.40 2.61 2.66 2.76 2.69 2.61 2.47 2.30 2.14 1.89 1.53 1.62 1.65 1.50 1.42 1.33 1.40 1.52 1.67 1.61 1.45
0.30 0.35 0.45 0.60 0.72 0.92 1.10 1.30 1.49 1.75 1.88 2.02 2.11 2.06 2.05 2.12 2.22 2.12 2.04 2.18 2.24 2.29 2.27 2.45 2.63 2.77 2.75 2.78 2.70 2.42 2.36 2.22 1.86 1.79 1.67 1.57 1.58 1.40 1.34 1.41 1.46 1.44 1.46

GEFSSE_prec_meanprecacc_192.txt.gz
Total_Precipitation_Accumulation
1.14 0.98 1.64 1.71 1.52 1.35 1.32 1.33 1.35 1.37 1.38 1.35 1.15 1.01 0.86 0.78 0.77 0.73 0.64 0.61 0.68 0.67 0.65 0.60 0.58 0.57 0.51 0.51 0.51 0.54 0.61 0.67 0.72 0.74 0.79 0.83 0.74 0.77 1.04 1.28 1.40 1.72 1.33
0.92 1.00 1.74 1.79 1.54 1.31 1.25 1.26 1.33 1.37 1.41 1.30 1.18 1.05 0.88 0.76 0.72 0.67 0.54 0.51 0.55 0.59 0.58 0.58 0.62 0.61 0.60 0.64 0.69 0.73 0.70 0.67 0.79 0.88 1.01 1.05 0.94 0.90 0.91 1.16 1.31 1.56 1.30
0.94 1.01 1.47 1.85 1.65 1.44 1.30 1.29 1.37 1.35 1.41 1.27 1.20 1.02 0.86 0.73 0.72 0.71 0.61 0.57 0.60 0.55 0.50 0.54 0.65 0.66 0.71 0.73 0.78 0.83 0.78 0.72 0.86 1.06 1.41 2.01 1.47 1.02 1.03 1.12 1.17 1.09 1.18
0.88 0.92 1.29 1.88 1.66 1.53 1.46 1.49 1.42 1.41 1.48 1.29 1.15 1.00 0.86 0.80 0.79 0.80 0.88 0.91 0.77 0.59 0.54 0.53 0.65 0.68 0.65 0.70 0.79 0.78 0.73 0.78 0.96 1.10 1.51 2.08 1.89 1.22 1.18 1.24 1.28 1.08 1.08
0.89 0.99 1.47 1.87 1.63 1.50 1.49 1.55 1.45 1.48 1.47 1.30 1.11 0.91 0.84 0.86 0.95 1.04 1.08 0.98 0.77 0.63 0.58 0.59 0.67 0.70 0.65 0.63 0.73 0.77 0.76 0.85 1.01 1.07 1.50 1.99 2.17 1.59 1.25 1.26 1.30 1.16 1.15
1.03 1.01 1.43 1.81 1.66 1.51 1.46 1.45 1.43 1.41 1.43 1.34 1.11 0.91 0.86 0.85 0.87 0.95 1.02 0.95 0.79 0.67 0.59 0.65 0.71 0.73 0.69 0.66 0.71 0.78 0.79 0.89 0.88 1.13 1.56 1.84 2.09 1.57 1.17 1.19 1.35 1.29 1.30
0.98 1.00 1.28 1.69 1.57 1.38 1.38 1.46 1.50 1.45 1.41 1.33 1.10 0.98 0.96 0.92 0.86 0.92 0.93 0.87 0.73 0.64 0.62 0.68 0.73 0.76 0.72 0.69 0.70 0.71 0.77 0.72 0.68 1.04 1.42 1.74 1.70 1.38 1.18 1.27 1.43 1.40 1.50
1.00 0.92 1.03 1.42 1.51 1.37 1.32 1.35 1.37 1.39 1.39 1.31 1.05 0.97 0.93 0.94 0.90 0.87 0.88 0.85 0.74 0.73 0.73 0.71 0.70 0.75 0.77 0.73 0.70 0.71 0.72 0.62 0.53 0.80 1.14 1.52 1.59 1.46 1.31 1.33 1.46 1.51 1.64
1.09 0.99 1.00 1.20 1.34 1.53 1.53 1.43 1.34 1.34 1.34 1.33 1.12 0.99 0.94 0.85 0.77 0.75 0.74 0.74 0.76 0.83 0.79 0.72 0.68 0.68 0.71 0.73 0.73 0.75 0.73 0.63 0.57 0.74 0.79 1.23 1.46 1.51 1.38 1.35 1.42 1.48 1.66
1.09 1.02 1.01 1.11 1.12 1.19 1.32 1.43 1.45 1.44 1.43 1.40 1.18 1.03 0.95 0.79 0.70 0.70 0.64 0.66 0.73 0.87 0.94 0.85 0.78 0.75 0.74 0.79 0.80 0.79 0.80 0.64 0.56 0.60 0.78 0.94 1.36 1.46 1.34 1.33 1.34 1.38 1.54
1.00 0.91 0.89 0.94 1.05 1.15 1.25 1.34 1.57 1.55 1.57 1.47 1.25 1.10 0.95 0.74 0.65 0.67 0.62 0.79 0.82 0.88 0.95 0.97 0.97 0.94 0.86 0.80 0.85 0.81 0.65 0.57 0.67 0.69 0.79 0.89 1.32 1.48 1.42 1.37 1.38 1.35 1.36
0.99 0.87 0.75 0.77 0.89 1.01 1.09 1.27 1.37 1.31 1.29 1.22 1.32 1.16 1.01 0.95 0.83 0.55 0.61 0.85 1.01 1.05 1.00 0.97 1.07 0.95 0.74 0.59 0.68 0.64 0.46 0.50 0.63 0.67 0.69 0.99 1.34 1.37 1.28 1.30 1.36 1.30 1.27
0.90 0.82 0.69 0.65 0.66 0.69 0.82 0.99 1.06 1.18 1.29 1.21 1.14 1.11 1.07 0.94 0.75 0.62 0.67 0.70 0.75 0.83 0.77 0.80 0.78 0.64 0.56 0.60 0.61 0.49 0.43 0.51 0.61 0.70 0.76 1.15 1.46 1.46 1.26 1.18 1.26 1.26 1.26
0.78 0.78 0.69 0.53 0.47 0.44 0.51 0.60 0.71 0.85 1.02 1.06 0.89 0.83 0.89 0.90 0.79 0.66 0.67 0.67 0.67 0.72 0.81 0.85 0.84 0.75 0.72 0.70 0.65 0.63 0.62 0.65 0.67 0.75 0.92 1.16 1.58 1.50 1.30 1.24 1.30 1.34 1.33
0.73 0.74 0.69 0.55 0.49 0.42 0.43 0.45 0.46 0.65 0.84 0.96 0.96 0.83 0.79 0.80 0.79 0.73 0.62 0.65 0.60 0.64 0.70 0.76 0.79 0.82 0.91 0.86 0.82 0.84 0.87 0.83 0.76 0.74 0.90 1.13 1.55 1.81 1.71 1.56 1.37 1.39 1.42
0.59 0.69 0.68 0.65 0.63 0.53 0.43 0.43 0.44 0.53 0.65 0.73 0.88 0.89 0.83 0.76 0.72 0.76 0.72 0.73 0.74 0.71 0.71 0.72 0.71 0.85 0.92 0.92 0.89 0.89 0.88 0.77 0.76 0.85 1.00 1.06 1.09 1.38 1.84 1.90 1.76 1.66 1.60
0.53 0.56 0.56 0.59 0.67 0.66 0.60 0.56 0.54 0.62 0.64 0.70 0.77 0.77 0.84 0.75 0.69 0.74 0.78 0.79 0.81 0.81 0.80 0.83 0.84 0.92 0.93 0.97 0.99 0.90 0.85 0.79 0.78 0.85 0.93 1.00 0.82 0.83 1.24 1.72 1.91 1.82 1.81
0.48 0.47 0.52 0.50 0.60 0.70 0.74 0.74 0.76 0.77 0.79 0.85 0.82 0.78 0.78 0.74 0.71 0.80 0.83 0.87 0.93 0.85 0.82 0.90 0.97 1.05 1.04 1.10 1.13 0.97 0.80 0.87 0.84 0.85 0.97 0.99 0.92 0.80 0.89 1.07 1.31 1.49 1.82
0.44 0.46 0.52 0.54 0.60 0.68 0.73 0.83 0.90 0.95 1.02 1.15 1.10 1.06 1.00 0.88 0.89 0.97 1.02 1.05 1.07 1.08 1.01 0.92 0.96 1.07 1.18 1.22 1.10 1.01 0.89 0.88 0.92 0.91 1.09 1.08 0.98 0.88 0.94 0.90 0.93 1.04 1.32
0.46 0.46 0.52 0.61 0.69 0.79 0.93 1.13 1.32 1.40 1.56 1.77 1.70 1.56 1.37 1.20 1.17 1.28 1.26 1.21 1.28 1.38 1.42 1.22 1.27 1.23 1.20 1.30 1.15 1.07 1.04 0.99 1.00 1.05 1.10 1.15 1.16 1.02 1.07 1.04 0.96 0.78 0.92
0.41 0.41 0.47 0.53 0.64 0.76 0.96 1.25 1.65 1.86 1.99 2.00 2.02 1.92 1.71 1.49 1.51 1.67 1.65 1.63 1.64 1.64 1.61 1.56 1.71 1.65 1.39 1.31 1.49 1.46 1.32 1.16 1.11 1.09 1.10 1.22 1.31 1.29 1.35 1.31 1.19 1.00 0.86
0.32 0.29 0.39 0.45 0.56 0.71 0.98 1.27 1.58 1.92 1.99 2.01 2.02 1.98 1.85 1.73 1.73 1.77 1.98 2.09 2.07 2.18 2.16 1.98 2.13 2.14 1.78 1.54 1.79 2.08 1.80 1.59 1.21 1.09 1.15 1.17 1.26 1.40 1.47 1.39 1.25 1.13 1.07
0.25 0.22 0.30 0.36 0.51 0.79 1.13 1.44 1.62 1.89 1.99 2.04 2.00 2.02 2.03 1.98 1.89 1.91 2.02 2.20 2.22 2.29 2.40 2.47 2.42 2.52 2.33 1.94 1.81 2.09 1.99 1.84 1.64 1.26 1.18 1.27 1.39 1.47 1.52 1.52 1.40 1.18 1.15
0.21 0.20 0.25 0.33 0.53 0.87 1.20 1.45 1.67 2.02 2.11 2.06 2.09 2.09 2.09 2.11 2.08 2.15 2.18 2.29 2.32 2.34 2.44 2.54 2.52 2.66 2.73 2.34 2.04 1.84 1.67 1.67 1.79 1.56 1.32 1.29 1.45 1.49 1.50 1.54 1.58 1.44 1.27
0.25 0.26 0.31 0.44 0.65 0.92 1.14 1.39 1.72 1.95 2.06 2.19 2.12 2.09 2.10 2.17 2.18 2.22 2.29 2.45 2.45 2.43 2.41 2.62 2.67 2.76 2.69 2.61 2.47 2.31 2.14 1.89 1.54 1.62 1.66 1.52 1.43 1.34 1.41 1.53 1.68 1.63 1.48
0.31 0.37 0.47 0.62 0.75 0.97 1.16 1.38 1.55 1.77 1.89 2.02 2.11 2.06 2.05 2.12 2.22 2.12 2.04 2.18 2.25 2.29 2.28 2.46 2.64 2.77 2.75 2.78 2.71 2.42 2.37 2.23 1.87 1.80 1.68 1.58 1.59 1.41 1.34 1.42 1.47 1.46 1.48

GEFSSE_prec_meanprecacc_198.txt.gz
Total_Precipitation_Accumulation
1.19 1.06 1.80 1.88 1.69 1.49 1.39 1.37 1.39 1.41 1.41 1.39 1.22 1.07 0.92 0.82 0.79 0.75 0.66 0.63 0.69 0.68 0.66 0.61 0.59 0.60 0.55 0.55 0.55 0.58 0.65 0.72 0.75 0.77 0.83 0.87 0.80 0.82 1.08 1.34 1.45 1.75 1.38
0.95 1.07 1.88 1.97 1.73 1.44 1.31 1.30 1.36 1.40 1.45 1.34 1.24 1.11 0.95 0.79 0.75 0.69 0.56 0.52 0.56 0.61 0.59 0.60 0.64 0.65 0.64 0.69 0.74 0.79 0.76 0.72 0.82 0.92 1.05 1.09 0.99 0.95 0.96 1.21 1.36 1.60 1.36
0.97 1.09 1.62 2.04 1.84 1.57 1.37 1.34 1.41 1.38 1.45 1.32 1.26 1.08 0.92 0.77 0.75 0.73 0.62 0.58 0.62 0.56 0.52 0.56 0.67 0.70 0.74 0.78 0.84 0.90 0.84 0.77 0.88 1.09 1.43 2.02 1.49 1.08 1.09 1.19 1.25 1.16 1.23
0.92 0.99 1.41 2.06 1.81 1.67 1.56 1.55 1.46 1.45 1.52 1.34 1.21 1.04 0.91 0.84 0.82 0.82 0.90 0.93 0.80 0.62 0.56 0.55 0.68 0.70 0.69 0.75 0.85 0.84 0.80 0.82 1.00 1.11 1.52 2.09 1.90 1.27 1.24 1.32 1.35 1.14 1.13
0.95 1.07 1.60 2.01 1.75 1.62 1.60 1.61 1.49 1.54 1.51 1.35 1.15 0.95 0.88 0.89 0.98 1.08 1.10 1.01 0.80 0.65 0.60 0.61 0.68 0.72 0.68 0.66 0.77 0.83 0.83 0.90 1.04 1.07 1.51 2.00 2.19 1.64 1.30 1.32 1.35 1.20 1.19
1.12 1.12 1.57 1.96 1.76 1.59 1.56 1.54 1.51 1.48 1.49 1.39 1.14 0.96 0.90 0.88 0.90 0.98 1.04 0.98 0.81 0.69 0.61 0.66 0.72 0.74 0.71 0.70 0.74 0.82 0.84 0.92 0.90 1.13 1.57 1.86 2.12 1.65 1.22 1.24 1.39 1.32 1.33
1.07 1.12 1.42 1.83 1.66 1.46 1.46 1.54 1.58 1.53 1.48 1.38 1.13 1.02 1.00 0.94 0.89 0.94 0.95 0.89 0.75 0.65 0.63 0.69 0.74 0.78 0.73 0.72 0.72 0.74 0.82 0.75 0.69 1.05 1.43 1.75 1.72 1.45 1.25 1.31 1.47 1.44 1.52
1.09 1.03 1.20 1.55 1.61 1.45 1.41 1.42 1.45 1.48 1.47 1.37 1.09 1.00 0.96 0.96 0.92 0.90 0.90 0.86 0.75 0.74 0.74 0.72 0.71 0.76 0.78 0.75 0.73 0.74 0.75 0.64 0.54 0.80 1.14 1.52 1.62 1.52 1.38 1.38 1.50 1.54 1.67
1.20 1.12 1.14 1.30 1.43 1.61 1.65 1.52 1.41 1.41 1.41 1.38 1.17 1.04 0.98 0.90 0.80 0.77 0.77 0.76 0.77 0.83 0.80 0.73 0.69 0.69 0.73 0.76 0.76 0.79 0.76 0.65 0.58 0.75 0.80 1.24 1.51 1.56 1.43 1.41 1.48 1.54 1.70
1.18 1.11 1.08 1.16 1.18 1.30 1.46 1.58 1.55 1.51 1.48 1.45 1.23 1.08 1.00 0.84 0.73 0.72 0.65 0.68 0.74 0.87 0.95 0.86 0.79 0.77 0.76 0.81 0.84 0.83 0.82 0.65 0.56 0.61 0.80 0.99 1.43 1.51 1.40 1.39 1.41 1.44 1.58
1.08 0.98 0.94 0.97 1.09 1.22 1.36 1.52 1.70 1.63 1.61 1.50 1.29 1.16 1.00 0.76 0.66 0.68 0.63 0.80 0.83 0.89 0.96 0.98 1.00 0.97 0.89 0.82 0.89 0.83 0.66 0.57 0.67 0.70 0.80 0.94 1.41 1.56 1.48 1.42 1.43 1.39 1.39
1.04 0.92 0.78 0.80 0.93 1.05 1.16 1.44 1.53 1.38 1.33 1.24 1.35 1.23 1.03 0.96 0.84 0.56 0.64 0.87 1.03 1.06 1.02 0.99 1.09 0.97 0.75 0.61 0.69 0.65 0.47 0.51 0.63 0.68 0.71 1.07 1.48 1.50 1.35 1.35 1.41 1.33 1.29
0.92 0.85 0.73 0.71 0.72 0.73 0.86 1.06 1.18 1.28 1.35 1.24 1.16 1.12 1.08 0.94 0.76 0.63 0.68 0.70 0.76 0.83 0.78 0.80 0.79 0.64 0.56 0.61 0.61 0.50 0.45 0.53 0.62 0.71 0.79 1.23 1.57 1.57 1.32 1.23 1.32 1.31 1.30
0.80 0.80 0.72 0.58 0.53 0.49 0.56 0.64 0.76 0.95 1.09 1.10 0.92 0.83 0.89 0.91 0.80 0.67 0.67 0.67 0.68 0.72 0.81 0.85 0.84 0.75 0.72 0.70 0.65 0.65 0.64 0.68 0.69 0.77 0.95 1.21 1.66 1.61 1.40 1.30 1.35 1.41 1.39
0.76 0.77 0.70 0.56 0.51 0.44 0.46 0.48 0.49 0.71 0.92 1.01 0.99 0.84 0.80 0.81 0.80 0.74 0.63 0.65 0.60 0.64 0.71 0.76 0.79 0.82 0.91 0.87 0.84 0.87 0.89 0.86 0.77 0.75 0.91 1.17 1.62 1.91 1.81 1.65 1.47 1.52 1.53
0.63 0.72 0.70 0.66 0.64 0.54 0.45 0.45 0.46 0.57 0.72 0.78 0.91 0.91 0.84 0.76 0.73 0.76 0.72 0.73 0.74 0.71 0.72 0.73 0.72 0.85 0.92 0.94 0.92 0.91 0.89 0.78 0.76 0.86 1.01 1.08 1.13 1.44 1.92 2.00 1.91 1.81 1.72
0.58 0.59 0.58 0.60 0.68 0.66 0.61 0.57 0.56 0.65 0.69 0.74 0.80 0.80 0.85 0.76 0.69 0.75 0.78 0.79 0.81 0.81 0.81 0.83 0.85 0.93 0.93 1.01 1.02 0.91 0.86 0.79 0.79 0.86 0.93 1.00 0.84 0.86 1.31 1.91 2.15 2.01 1.95
0.52 0.51 0.54 0.51 0.61 0.71 0.75 0.75 0.77 0.79 0.81 0.87 0.84 0.80 0.78 0.74 0.72 0.80 0.83 0.87 0.93 0.85 0.82 0.91 0.97 1.05 1.05 1.12 1.15 0.99 0.82 0.88 0.84 0.85 0.97 0.99 0.93 0.81 0.96 1.26 1.55 1.70 1.97
0.49 0.50 0.55 0.56 0.63 0.70 0.76 0.85 0.91 0.96 1.03 1.15 1.11 1.07 1.00 0.88 0.90 0.97 1.02 1.05 1.07 1.09 1.01 0.92 0.97 1.07 1.19 1.24 1.12 1.02 0.90 0.89 0.92 0.92 1.09 1.09 0.99 0.89 0.98 0.98 1.06 1.19 1.46
0.51 0.50 0.55 0.64 0.72 0.83 0.97 1.16 1.34 1.41 1.57 1.77 1.71 1.56 1.37 1.21 1.17 1.28 1.26 1.21 1.28 1.39 1.42 1.23 1.28 1.23 1.20 1.30 1.16 1.08 1.06 1.00 1.01 1.07 1.11 1.16 1.17 1.03 1.09 1.07 0.99 0.83 0.99
0.45 0.45 0.50 0.57 0.68 0.79 1.00 1.29 1.68 1.88 2.00 2.01 2.02 1.92 1.71 1.49 1.51 1.68 1.65 1.63 1.65 1.64 1.61 1.56 1.71 1.65 1.39 1.32 1.50 1.47 1.33 1.18 1.13 1.09 1.11 1.23 1.31 1.30 1.36 1.31 1.20 1.02 0.89
0.34 0.33 0.43 0.49 0.59 0.75 1.02 1.30 1.61 1.94 2.00 2.01 2.02 1.98 1.86 1.73 1.73 1.77 1.98 2.09 2.07 2.18 2.16 1.99 2.13 2.14 1.78 1.54 1.79 2.08 1.81 1.60 1.22 1.10 1.16 1.18 1.27 1.40 1.49 1.39 1.25 1.14 1.09
0.26 0.24 0.33 0.39 0.54 0.84 1.18 1.47 1.64 1.90 2.00 2.04 2.00 2.02 2.03 1.98 1.89 1.91 2.03 2.20 2.22 2.30 2.40 2.47 2.42 2.52 2.34 1.94 1.81 2.09 1.99 1.85 1.65 1.26 1.18 1.27 1.40 1.47 1.52 1.53 1.40 1.19 1.16
0.21 0.20 0.27 0.35 0.56 0.91 1.24 1.49 1.72 2.06 2.13 2.07 2.09 2.09 2.09 2.11 2.08 2.15 2.18 2.29 2.32 2.34 2.44 2.54 2.52 2.66 2.73 2.34 2.04 1.84 1.67 1.67 1.79 1.56 1.33 1.29 1.45 1.49 1.50 1.54 1.60 1.45 1.28
0.25 0.27 0.32 0.45 0.67 0.95 1.17 1.43 1.77 2.00 2.09 2.20 2.12 2.10 2.10 2.17 2.19 2.22 2.29 2.46 2.46 2.44 2.41 2.63 2.68 2.77 2.70 2.62 2.47 2.31 2.14 1.89 1.54 1.62 1.66 1.52 1.43 1.34 1.41 1.55 1.70 1.66 1.50
0.32 0.38 0.48 0.63 0.76 0.98 1.19 1.41 1.58 1.80 1.91 2.03 2.12 2.06 2.06 2.13 2.23 2.12 2.04 2.18 2.25 2.29 2.28 2.47 2.65 2.78 2.76 2.79 2.71 2.43 2.37 2.23 1.87 1.80 1.68 1.58 1.59 1.41 1.36 1.46 1.52 1.52 1.54

GEFSSE_prec_meanprecacc_204.txt.gz
Total_Precipitation_Accumulation
1.22 1.11 1.89 2.00 1.81 1.60 1.50 1.47 1.46 1.47 1.49 1.50 1.32 1.13 0.98 0.89 0.86 0.80 0.69 0.64 0.71 0.71 0.69 0.64 0.63 0.63 0.58 0.59 0.59 0.61 0.67 0.77 0.80 0.82 0.87 0.90 0.84 0.86 1.11 1.38 1.52 1.83 1.48
0.97 1.10 1.96 2.09 1.86 1.54 1.40 1.39 1.45 1.46 1.50 1.42 1.34 1.17 1.02 0.87 0.81 0.74 0.60 0.53 0.57 0.62 0.61 0.63 0.68 0.68 0.68 0.73 0.78 0.82 0.78 0.76 0.87 0.95 1.08 1.11 1.02 0.98 1.00 1.26 1.40 1.68 1.45
0.99 1.12 1.72 2.17 1.95 1.67 1.45 1.42 1.49 1.44 1.53 1.41 1.35 1.16 1.01 0.86 0.81 0.77 0.65 0.59 0.63 0.58 0.55 0.59 0.71 0.73 0.78 0.82 0.86 0.92 0.87 0.81 0.92 1.12 1.46 2.06 1.53 1.11 1.12 1.22 1.29 1.23 1.32
0.95 1.03 1.50 2.20 1.92 1.75 1.64 1.63 1.54 1.53 1.59 1.41 1.28 1.11 0.99 0.91 0.88 0.87 0.93 0.95 0.82 0.64 0.59 0.59 0.71 0.73 0.73 0.80 0.89 0.87 0.83 0.85 1.02 1.12 1.54 2.12 1.94 1.30 1.27 1.35 1.40 1.21 1.22
0.98 1.11 1.71 2.18 1.88 1.71 1.68 1.68 1.57 1.63 1.60 1.41 1.21 0.99 0.93 0.95 1.05 1.13 1.14 1.03 0.82 0.67 0.63 0.64 0.71 0.75 0.71 0.71 0.82 0.87 0.87 0.94 1.06 1.08 1.52 2.03 2.25 1.70 1.34 1.35 1.40 1.25 1.25
1.19 1.20 1.69 2.10 1.89 1.69 1.66 1.62 1.59 1.57 1.58 1.47 1.20 1.00 0.95 0.93 0.95 1.02 1.07 1.00 0.83 0.70 0.63 0.69 0.75 0.77 0.74 0.75 0.79 0.86 0.88 0.95 0.91 1.14 1.58 1.89 2.17 1.71 1.26 1.27 1.43 1.36 1.37
1.16 1.21 1.54 1.95 1.80 1.58 1.54 1.61 1.66 1.62 1.59 1.49 1.22 1.09 1.06 1.01 0.95 0.99 0.98 0.92 0.77 0.66 0.64 0.70 0.76 0.81 0.76 0.78 0.76 0.77 0.84 0.77 0.70 1.07 1.44 1.77 1.75 1.49 1.28 1.34 1.51 1.48 1.56
1.17 1.13 1.32 1.69 1.76 1.58 1.50 1.49 1.56 1.57 1.57 1.46 1.17 1.07 1.02 1.02 0.98 0.94 0.94 0.89 0.77 0.75 0.75 0.73 0.73 0.79 0.82 0.79 0.77 0.78 0.78 0.65 0.55 0.81 1.15 1.54 1.64 1.55 1.41 1.41 1.53 1.59 1.71
1.29 1.22 1.24 1.42 1.58 1.78 1.76 1.61 1.52 1.49 1.48 1.45 1.24 1.11 1.04 0.94 0.83 0.81 0.81 0.78 0.78 0.85 0.81 0.74 0.71 0.72 0.76 0.79 0.80 0.83 0.78 0.66 0.59 0.77 0.81 1.26 1.53 1.59 1.47 1.44 1.51 1.58 1.75
1.32 1.24 1.19 1.28 1.33 1.47 1.61 1.68 1.65 1.59 1.56 1.53 1.32 1.17 1.07 0.90 0.78 0.77 0.69 0.71 0.76 0.89 0.96 0.87 0.81 0.79 0.79 0.85 0.86 0.84 0.83 0.65 0.58 0.63 0.82 1.00 1.46 1.55 1.43 1.44 1.47 1.50 1.64
1.20 1.08 1.03 1.07 1.19 1.33 1.55 1.71 1.80 1.71 1.70 1.59 1.38 1.25 1.09 0.82 0.70 0.72 0.67 0.83 0.84 0.91 0.98 1.00 1.02 0.99 0.91 0.86 0.91 0.84 0.66 0.59 0.70 0.73 0.83 0.97 1.47 1.62 1.54 1.48 1.50 1.46 1.44
1.17 1.04 0.88 0.88 0.99 1.10 1.22 1.63 1.67 1.46 1.40 1.30 1.43 1.30 1.09 1.01 0.88 0.60 0.66 0.89 1.05 1.08 1.04 1.01 1.11 0.97 0.76 0.63 0.71 0.65 0.48 0.54 0.66 0.72 0.74 1.12 1.56 1.59 1.45 1.41 1.47 1.39 1.32
1.03 0.97 0.84 0.78 0.77 0.77 0.88 1.14 1.32 1.36 1.41 1.30 1.24 1.16 1.10 0.97 0.79 0.66 0.70 0.72 0.78 0.84 0.79 0.81 0.80 0.64 0.57 0.62 0.62 0.51 0.45 0.54 0.64 0.73 0.82 1.29 1.64 1.65 1.40 1.29 1.36 1.35 1.34
0.86 0.87 0.79 0.66 0.59 0.54 0.58 0.67 0.81 0.99 1.13 1.13 0.95 0.85 0.91 0.92 0.81 0.69 0.69 0.68 0.69 0.73 0.83 0.86 0.85 0.75 0.73 0.71 0.66 0.66 0.65 0.68 0.71 0.79 0.98 1.26 1.71 1.68 1.50 1.39 1.42 1.46 1.45
0.80 0.82 0.74 0.60 0.57 0.52 0.52 0.54 0.53 0.75 0.95 1.04 1.01 0.85 0.81 0.82 0.81 0.75 0.64 0.66 0.61 0.64 0.72 0.77 0.80 0.83 0.92 0.88 0.85 0.88 0.90 0.86 0.78 0.77 0.94 1.21 1.68 2.03 1.96 1.78 1.59 1.60 1.61
0.67 0.76 0.73 0.68 0.68 0.61 0.52 0.51 0.52 0.60 0.75 0.80 0.93 0.92 0.85 0.77 0.74 0.77 0.73 0.74 0.74 0.72 0.72 0.73 0.73 0.86 0.93 0.96 0.94 0.92 0.91 0.79 0.78 0.87 1.03 1.11 1.17 1.52 2.01 2.09 2.03 1.92 1.82
0.61 0.62 0.60 0.62 0.69 0.69 0.65 0.60 0.59 0.68 0.72 0.77 0.82 0.81 0.86 0.77 0.70 0.75 0.78 0.80 0.82 0.81 0.81 0.84 0.85 0.94 0.94 1.02 1.05 0.93 0.87 0.81 0.79 0.87 0.94 1.02 0.86 0.90 1.38 1.98 2.23 2.09 2.03
0.54 0.53 0.56 0.53 0.62 0.72 0.77 0.77 0.80 0.81 0.84 0.91 0.87 0.82 0.80 0.75 0.73 0.81 0.84 0.88 0.94 0.85 0.82 0.91 0.98 1.06 1.06 1.13 1.17 1.00 0.83 0.90 0.86 0.86 0.99 1.01 0.97 0.90 1.08 1.32 1.59 1.75 2.04
0.51 0.53 0.58 0.58 0.64 0.72 0.77 0.87 0.95 1.00 1.06 1.19 1.15 1.09 1.02 0.90 0.91 0.98 1.03 1.06 1.08 1.09 1.02 0.93 0.97 1.08 1.20 1.24 1.13 1.04 0.93 0.92 0.94 0.93 1.10 1.11 1.05 1.05 1.15 1.08 1.10 1.24 1.53
0.57 0.54 0.59 0.67 0.74 0.84 0.99 1.18 1.37 1.46 1.60 1.79 1.73 1.58 1.38 1.22 1.19 1.29 1.27 1.22 1.29 1.39 1.43 1.23 1.28 1.24 1.21 1.31 1.17 1.09 1.07 1.02 1.02 1.07 1.12 1.18 1.26 1.17 1.22 1.14 1.04 0.87 1.07
0.53 0.53 0.55 0.60 0.70 0.81 1.01 1.30 1.70 1.91 2.04 2.03 2.04 1.94 1.72 1.51 1.52 1.68 1.66 1.64 1.65 1.65 1.62 1.57 1.71 1.65 1.40 1.32 1.51 1.49 1.35 1.19 1.14 1.11 1.12 1.27 1.39 1.39 1.44 1.37 1.24 1.06 0.94
0.37 0.40 0.52 0.55 0.63 0.77 1.03 1.31 1.63 1.96 2.03 2.03 2.04 1.99 1.87 1.74 1.74 1.78 1.99 2.10 2.07 2.19 2.17 1.99 2.14 2.15 1.79 1.55 1.81 2.11 1.84 1.63 1.23 1.11 1.17 1.21 1.31 1.46 1.55 1.43 1.28 1.17 1.12
0.26 0.26 0.38 0.47 0.60 0.88 1.21 1.49 1.67 1.94 2.02 2.05 2.01 2.02 2.04 1.99 1.89 1.91 2.03 2.21 2.22 2.30 2.41 2.48 2.42 2.53 2.35 1.95 1.81 2.10 2.02 1.88 1.68 1.29 1.20 1.28 1.41 1.50 1.57 1.58 1.43 1.21 1.18
0.22 0.21 0.28 0.37 0.59 0.94 1.28 1.53 1.77 2.11 2.16 2.09 2.10 2.09 2.10 2.12 2.08 2.16 2.18 2.30 2.32 2.34 2.45 2.55 2.52 2.66 2.74 2.35 2.05 1.84 1.67 1.68 1.81 1.59 1.35 1.30 1.46 1.50 1.53 1.57 1.62 1.46 1.29
0.26 0.27 0.33 0.46 0.68 0.96 1.18 1.45 1.81 2.04 2.12 2.23 2.14 2.11 2.11 2.17 2.19 2.23 2.30 2.46 2.46 2.44 2.42 2.63 2.68 2.78 2.71 2.62 2.47 2.31 2.14 1.90 1.55 1.64 1.68 1.53 1.44 1.35 1.42 1.56 1.72 1.67 1.51
0.33 0.38 0.48 0.63 0.77 1.00 1.20 1.42 1.60 1.83 1.95 2.07 2.14 2.07 2.07 2.13 2.23 2.12 2.04 2.18 2.25 2.29 2.28 2.47 2.65 2.79 2.77 2.79 2.71 2.43 2.37 2.24 1.87 1.81 1.69 1.60 1.61 1.42 1.36 1.46 1.52 1.53 1.55

GEFSSE_prec_meanprecacc_210.txt.gz
Total_Precipitation_Accumulation
1.31 1.16 1.92 2.04 1.86 1.64 1.57 1.52 1.54 1.56 1.57 1.59 1.41 1.20 1.04 0.97 0.94 0.88 0.74 0.67 0.74 0.75 0.73 0.69 0.67 0.67 0.64 0.63 0.62 0.65 0.71 0.80 0.83 0.85 0.90 0.96 0.88 0.89 1.15 1.46 1.63 1.92 1.52
1.04 1.14 1.98 2.14 1.90 1.57 1.45 1.44 1.55 1.55 1.59 1.52 1.43 1.24 1.09 0.97 0.90 0.82 0.65 0.57 0.60 0.65 0.64 0.67 0.72 0.73 0.74 0.77 0.82 0.85 0.83 0.79 0.89 0.98 1.13 1.18 1.06 1.02 1.04 1.33 1.48 1.74 1.53
1.05 1.18 1.75 2.23 1.99 1.70 1.49 1.48 1.58 1.54 1.62 1.50 1.44 1.25 1.09 0.94 0.88 0.82 0.69 0.64 0.67 0.62 0.59 0.62 0.75 0.78 0.83 0.86 0.90 0.96 0.91 0.84 0.95 1.17 1.56 2.18 1.61 1.15 1.16 1.28 1.35 1.28 1.39
1.01 1.08 1.53 2.28 1.99 1.80 1.68 1.70 1.62 1.60 1.67 1.49 1.37 1.20 1.05 0.97 0.94 0.92 0.97 1.00 0.86 0.68 0.63 0.62 0.75 0.78 0.77 0.84 0.92 0.90 0.86 0.89 1.07 1.22 1.65 2.23 2.05 1.33 1.30 1.39 1.46 1.26 1.30
1.05 1.16 1.78 2.25 1.93 1.76 1.73 1.73 1.64 1.70 1.67 1.49 1.30 1.09 1.00 1.02 1.13 1.21 1.20 1.07 0.85 0.71 0.67 0.67 0.74 0.79 0.76 0.74 0.85 0.88 0.89 0.97 1.12 1.17 1.61 2.14 2.34 1.74 1.37 1.39 1.45 1.32 1.33
1.26 1.25 1.74 2.15 1.95 1.76 1.73 1.67 1.65 1.65 1.66 1.56 1.30 1.10 1.03 1.03 1.04 1.09 1.12 1.03 0.86 0.74 0.66 0.71 0.78 0.80 0.78 0.78 0.81 0.88 0.90 0.98 0.97 1.20 1.64 1.98 2.25 1.75 1.30 1.30 1.46 1.41 1.43
1.22 1.27 1.58 1.99 1.86 1.64 1.60 1.65 1.71 1.69 1.66 1.58 1.32 1.18 1.16 1.10 1.00 1.02 1.02 0.95 0.80 0.69 0.67 0.73 0.78 0.83 0.79 0.81 0.79 0.79 0.86 0.80 0.73 1.09 1.48 1.83 1.80 1.53 1.31 1.38 1.54 1.51 1.59
1.22 1.20 1.37 1.76 1.83 1.64 1.56 1.55 1.61 1.62 1.64 1.55 1.26 1.15 1.10 1.09 1.03 0.98 0.98 0.93 0.80 0.78 0.77 0.74 0.75 0.81 0.83 0.82 0.79 0.79 0.79 0.68 0.58 0.85 1.19 1.58 1.68 1.58 1.45 1.43 1.55 1.62 1.76
1.34 1.28 1.31 1.53 1.67 1.85 1.84 1.70 1.62 1.56 1.55 1.51 1.29 1.18 1.12 1.00 0.87 0.85 0.85 0.82 0.81 0.86 0.82 0.75 0.72 0.73 0.77 0.80 0.81 0.84 0.80 0.68 0.62 0.82 0.85 1.29 1.56 1.62 1.50 1.47 1.54 1.61 1.79
1.37 1.30 1.24 1.34 1.40 1.54 1.69 1.79 1.78 1.68 1.62 1.57 1.36 1.25 1.14 0.95 0.81 0.80 0.73 0.74 0.78 0.91 0.97 0.88 0.82 0.80 0.80 0.86 0.87 0.85 0.84 0.67 0.60 0.68 0.88 1.03 1.48 1.58 1.46 1.47 1.51 1.53 1.68
1.26 1.15 1.08 1.12 1.26 1.40 1.63 1.77 1.88 1.80 1.76 1.62 1.42 1.31 1.14 0.87 0.75 0.77 0.71 0.86 0.87 0.93 1.00 1.01 1.02 0.99 0.92 0.86 0.92 0.85 0.67 0.61 0.72 0.79 0.87 1.01 1.50 1.65 1.58 1.51 1.53 1.50 1.48
1.24 1.10 0.93 0.94 1.05 1.17 1.30 1.73 1.75 1.52 1.45 1.33 1.46 1.35 1.14 1.06 0.94 0.66 0.71 0.93 1.07 1.10 1.06 1.02 1.12 0.99 0.79 0.66 0.72 0.67 0.50 0.57 0.70 0.75 0.75 1.15 1.60 1.64 1.48 1.45 1.51 1.41 1.34
1.13 1.03 0.90 0.84 0.83 0.81 0.91 1.18 1.36 1.40 1.45 1.34 1.27 1.20 1.15 1.02 0.84 0.70 0.73 0.74 0.80 0.86 0.81 0.83 0.83 0.69 0.61 0.64 0.66 0.54 0.47 0.57 0.66 0.75 0.84 1.32 1.69 1.70 1.46 1.34 1.40 1.38 1.36
0.93 0.93 0.87 0.71 0.64 0.58 0.62 0.69 0.82 1.01 1.15 1.17 1.00 0.90 0.95 0.97 0.86 0.71 0.71 0.71 0.71 0.75 0.87 0.90 0.89 0.80 0.75 0.72 0.69 0.70 0.68 0.71 0.73 0.82 1.01 1.28 1.74 1.73 1.58 1.48 1.49 1.51 1.49
0.84 0.86 0.79 0.64 0.62 0.57 0.58 0.59 0.57 0.78 0.97 1.08 1.07 0.91 0.85 0.85 0.84 0.77 0.65 0.67 0.63 0.66 0.75 0.80 0.83 0.86 0.94 0.90 0.87 0.90 0.93 0.88 0.80 0.79 0.97 1.23 1.70 2.07 2.03 1.87 1.68 1.68 1.67
0.68 0.79 0.77 0.72 0.72 0.67 0.58 0.56 0.56 0.66 0.79 0.84 0.97 0.97 0.89 0.80 0.76 0.78 0.74 0.75 0.76 0.73 0.74 0.75 0.74 0.88 0.95 0.98 0.96 0.94 0.92 0.83 0.81 0.90 1.06 1.13 1.19 1.55 2.07 2.17 2.11 1.99 1.89
0.62 0.65 0.63 0.64 0.71 0.72 0.69 0.65 0.63 0.73 0.77 0.81 0.85 0.84 0.88 0.78 0.71 0.76 0.79 0.81 0.82 0.82 0.82 0.85 0.86 0.96 0.96 1.04 1.07 0.95 0.89 0.86 0.82 0.88 0.97 1.07 0.89 0.92 1.40 2.00 2.27 2.14 2.10
0.56 0.55 0.58 0.55 0.63 0.74 0.80 0.80 0.82 0.84 0.88 0.94 0.90 0.84 0.82 0.77 0.74 0.82 0.84 0.89 0.94 0.86 0.84 0.93 1.00 1.08 1.08 1.15 1.18 1.02 0.85 0.94 0.88 0.88 1.01 1.05 1.01 0.94 1.10 1.33 1.60 1.79 2.10
0.54 0.55 0.61 0.59 0.65 0.73 0.78 0.88 0.96 1.02 1.09 1.21 1.17 1.12 1.04 0.91 0.92 0.99 1.04 1.06 1.08 1.09 1.03 0.94 0.98 1.10 1.22 1.26 1.14 1.05 0.94 0.95 0.97 0.94 1.12 1.14 1.12 1.12 1.18 1.10 1.12 1.27 1.59
0.59 0.57 0.62 0.70 0.76 0.87 1.01 1.19 1.37 1.47 1.62 1.81 1.75 1.59 1.39 1.23 1.19 1.30 1.28 1.22 1.30 1.40 1.44 1.24 1.30 1.26 1.22 1.33 1.18 1.11 1.09 1.03 1.03 1.09 1.13 1.25 1.39 1.25 1.26 1.19 1.09 0.90 1.10
0.56 0.57 0.57 0.63 0.71 0.83 1.03 1.32 1.71 1.93 2.05 2.05 2.06 1.95 1.73 1.51 1.52 1.70 1.67 1.64 1.66 1.66 1.63 1.58 1.73 1.67 1.42 1.34 1.55 1.53 1.37 1.20 1.15 1.12 1.17 1.39 1.53 1.47 1.50 1.42 1.30 1.11 0.98
0.40 0.43 0.55 0.57 0.66 0.79 1.06 1.33 1.64 1.98 2.05 2.05 2.05 2.02 1.89 1.75 1.75 1.79 2.00 2.11 2.08 2.21 2.18 2.01 2.16 2.19 1.82 1.57 1.85 2.18 1.90 1.67 1.26 1.15 1.25 1.32 1.44 1.55 1.60 1.47 1.32 1.21 1.15
0.28 0.27 0.40 0.51 0.65 0.92 1.24 1.52 1.69 1.95 2.03 2.07 2.03 2.04 2.06 2.00 1.91 1.92 2.04 2.21 2.23 2.31 2.43 2.51 2.46 2.57 2.38 1.97 1.83 2.14 2.09 1.95 1.72 1.32 1.26 1.37 1.54 1.62 1.65 1.64 1.47 1.23 1.20
0.23 0.21 0.28 0.38 0.61 0.98 1.33 1.56 1.80 2.16 2.21 2.12 2.13 2.12 2.12 2.13 2.09 2.17 2.19 2.30 2.33 2.35 2.46 2.56 2.53 2.68 2.76 2.37 2.06 1.85 1.69 1.72 1.84 1.62 1.40 1.36 1.54 1.59 1.60 1.62 1.66 1.50 1.32
0.28 0.28 0.33 0.47 0.69 0.98 1.22 1.48 1.84 2.09 2.18 2.27 2.16 2.12 2.12 2.18 2.20 2.24 2.31 2.47 2.46 2.45 2.43 2.64 2.70 2.80 2.72 2.64 2.49 2.32 2.16 1.92 1.57 1.67 1.73 1.58 1.47 1.38 1.46 1.60 1.76 1.71 1.54
0.34 0.39 0.50 0.66 0.79 1.01 1.22 1.45 1.64 1.87 2.00 2.12 2.18 2.10 2.08 2.14 2.24 2.13 2.05 2.19 2.26 2.30 2.29 2.48 2.66 2.80 2.79 2.80 2.72 2.43 2.39 2.26 1.90 1.84 1.72 1.62 1.64 1.44 1.39 1.49 1.55 1.55 1.57

GEFSSE_prec_meanprecacc_216.txt.gz
Total_Precipitation_Accumulation
1.37 1.20 1.97 2.11 1.91 1.67 1.59 1.54 1.57 1.60 1.60 1.63 1.45 1.22 1.07 1.01 0.96 0.89 0.76 0.68 0.75 0.76 0.74 0.70 0.69 0.69 0.65 0.65 0.64 0.66 0.74 0.83 0.87 0.90 0.95 0.99 0.92 0.94 1.20 1.53 1.69 1.97 1.59
1.11 1.19 2.04 2.20 1.93 1.59 1.47 1.48 1.58 1.59 1.62 1.55 1.46 1.27 1.13 1.00 0.93 0.83 0.67 0.59 0.62 0.66 0.65 0.68 0.73 0.75 0.77 0.79 0.84 0.88 0.85 0.81 0.93 1.03 1.18 1.22 1.11 1.07 1.09 1.38 1.53 1.80 1.62
1.15 1.24 1.80 2.29 2.03 1.73 1.53 1.53 1.61 1.57 1.65 1.53 1.47 1.29 1.14 0.98 0.92 0.84 0.71 0.66 0.70 0.64 0.61 0.65 0.79 0.81 0.86 0.88 0.93 0.99 0.95 0.90 1.01 1.21 1.59 2.20 1.64 1.22 1.21 1.32 1.39 1.34 1.47
1.05 1.12 1.57 2.32 2.02 1.83 1.72 1.72 1.64 1.62 1.70 1.52 1.41 1.24 1.11 1.02 0.97 0.96 1.02 1.04 0.89 0.72 0.67 0.66 0.79 0.82 0.80 0.86 0.95 0.94 0.90 0.94 1.14 1.26 1.67 2.25 2.06 1.38 1.35 1.45 1.49 1.30 1.35
1.08 1.19 1.82 2.30 1.98 1.79 1.75 1.76 1.67 1.72 1.69 1.52 1.33 1.12 1.04 1.06 1.17 1.24 1.23 1.10 0.88 0.74 0.70 0.71 0.78 0.83 0.79 0.76 0.87 0.92 0.94 1.02 1.16 1.19 1.62 2.14 2.35 1.79 1.42 1.43 1.49 1.36 1.37
1.31 1.29 1.79 2.21 1.99 1.80 1.76 1.71 1.68 1.68 1.69 1.59 1.33 1.13 1.06 1.08 1.08 1.12 1.15 1.06 0.88 0.76 0.68 0.74 0.81 0.83 0.81 0.80 0.84 0.91 0.94 1.02 0.99 1.21 1.65 1.99 2.26 1.79 1.34 1.33 1.49 1.45 1.46
1.26 1.31 1.62 2.03 1.89 1.67 1.62 1.67 1.73 1.70 1.68 1.62 1.36 1.23 1.21 1.16 1.03 1.04 1.04 0.98 0.82 0.72 0.68 0.74 0.80 0.84 0.81 0.83 0.81 0.81 0.89 0.83 0.75 1.10 1.48 1.83 1.82 1.58 1.35 1.40 1.57 1.56 1.63
1.24 1.22 1.40 1.79 1.86 1.67 1.59 1.56 1.62 1.64 1.66 1.59 1.30 1.19 1.15 1.14 1.07 1.01 0.99 0.95 0.82 0.80 0.79 0.76 0.77 0.83 0.85 0.83 0.81 0.81 0.82 0.70 0.60 0.86 1.19 1.59 1.70 1.62 1.47 1.46 1.58 1.67 1.81
1.37 1.31 1.35 1.55 1.70 1.90 1.88 1.75 1.67 1.60 1.59 1.55 1.32 1.21 1.15 1.03 0.90 0.86 0.85 0.83 0.82 0.88 0.84 0.77 0.74 0.74 0.78 0.82 0.83 0.86 0.82 0.70 0.64 0.83 0.86 1.30 1.59 1.66 1.53 1.51 1.56 1.64 1.83
1.41 1.34 1.29 1.38 1.43 1.57 1.73 1.85 1.82 1.73 1.66 1.60 1.39 1.28 1.20 0.99 0.84 0.81 0.74 0.75 0.79 0.92 0.99 0.90 0.82 0.81 0.82 0.88 0.89 0.87 0.86 0.68 0.62 0.69 0.89 1.06 1.52 1.61 1.50 1.51 1.53 1.56 1.70
1.29 1.19 1.12 1.16 1.28 1.42 1.65 1.81 1.92 1.84 1.79 1.65 1.44 1.35 1.22 0.91 0.78 0.78 0.72 0.88 0.88 0.94 1.01 1.02 1.04 1.01 0.93 0.88 0.94 0.87 0.69 0.63 0.76 0.81 0.89 1.06 1.56 1.68 1.61 1.54 1.56 1.54 1.51
1.28 1.13 0.95 0.96 1.07 1.18 1.31 1.74 1.77 1.53 1.47 1.35 1.48 1.38 1.20 1.11 0.95 0.67 0.72 0.94 1.08 1.11 1.07 1.03 1.13 1.00 0.80 0.67 0.73 0.68 0.51 0.59 0.71 0.76 0.78 1.22 1.66 1.68 1.51 1.48 1.55 1.47 1.38
1.15 1.06 0.93 0.85 0.84 0.83 0.93 1.20 1.37 1.41 1.46 1.35 1.29 1.23 1.20 1.07 0.87 0.72 0.75 0.76 0.81 0.87 0.82 0.84 0.83 0.70 0.63 0.65 0.67 0.55 0.49 0.58 0.67 0.76 0.87 1.39 1.78 1.76 1.50 1.39 1.47 1.43 1.39
0.95 0.96 0.90 0.73 0.66 0.60 0.63 0.71 0.84 1.02 1.16 1.18 1.01 0.92 0.98 1.00 0.89 0.74 0.73 0.72 0.72 0.76 0.88 0.91 0.91 0.83 0.77 0.74 0.70 0.71 0.69 0.72 0.74 0.83 1.03 1.33 1.79 1.81 1.66 1.55 1.56 1.57 1.53
0.86 0.88 0.81 0.66 0.65 0.60 0.60 0.60 0.58 0.79 0.98 1.09 1.10 0.94 0.88 0.89 0.88 0.80 0.67 0.68 0.64 0.68 0.76 0.81 0.85 0.89 0.95 0.91 0.88 0.92 0.94 0.90 0.82 0.80 0.98 1.26 1.74 2.12 2.11 1.96 1.77 1.75 1.72
0.70 0.80 0.77 0.73 0.75 0.69 0.59 0.58 0.58 0.67 0.80 0.85 1.01 1.02 0.94 0.85 0.79 0.81 0.76 0.76 0.77 0.76 0.76 0.76 0.75 0.89 0.96 0.99 0.97 0.96 0.94 0.84 0.83 0.91 1.07 1.14 1.22 1.59 2.16 2.27 2.18 2.06 1.95
0.64 0.66 0.64 0.65 0.72 0.73 0.70 0.66 0.64 0.74 0.78 0.82 0.87 0.87 0.91 0.81 0.73 0.78 0.82 0.83 0.83 0.84 0.83 0.86 0.87 0.96 0.97 1.05 1.09 0.96 0.90 0.87 0.83 0.89 0.98 1.08 0.90 0.94 1.45 2.06 2.31 2.19 2.14
0.57 0.56 0.59 0.55 0.64 0.75 0.80 0.81 0.83 0.86 0.89 0.95 0.91 0.85 0.82 0.77 0.74 0.82 0.85 0.90 0.95 0.86 0.84 0.94 1.00 1.09 1.09 1.16 1.19 1.02 0.86 0.94 0.89 0.89 1.02 1.05 1.03 0.95 1.10 1.34 1.63 1.84 2.17
0.56 0.56 0.61 0.60 0.66 0.74 0.79 0.88 0.96 1.03 1.09 1.22 1.17 1.12 1.04 0.92 0.93 1.00 1.04 1.07 1.09 1.10 1.03 0.94 0.99 1.12 1.24 1.28 1.15 1.06 0.95 0.96 0.98 0.95 1.12 1.15 1.13 1.13 1.19 1.11 1.13 1.29 1.64
0.62 0.58 0.63 0.71 0.76 0.87 1.02 1.19 1.38 1.47 1.63 1.82 1.75 1.61 1.40 1.23 1.19 1.31 1.30 1.23 1.30 1.40 1.44 1.25 1.30 1.28 1.25 1.34 1.19 1.12 1.10 1.04 1.04 1.10 1.16 1.28 1.41 1.27 1.27 1.20 1.10 0.92 1.14
0.60 0.58 0.58 0.64 0.71 0.83 1.03 1.32 1.71 1.93 2.06 2.05 2.06 1.96 1.74 1.52 1.53 1.71 1.69 1.66 1.66 1.66 1.63 1.58 1.73 1.68 1.43 1.35 1.55 1.54 1.38 1.21 1.16 1.15 1.21 1.44 1.56 1.48 1.50 1.43 1.30 1.13 1.01
0.44 0.47 0.58 0.59 0.66 0.79 1.06 1.33 1.64 1.98 2.05 2.06 2.06 2.02 1.89 1.75 1.76 1.80 2.01 2.11 2.09 2.21 2.19 2.01 2.16 2.20 1.82 1.58 1.86 2.19 1.91 1.68 1.27 1.18 1.31 1.37 1.48 1.56 1.61 1.48 1.33 1.22 1.17
0.32 0.30 0.43 0.52 0.66 0.93 1.26 1.53 1.69 1.96 2.04 2.08 2.04 2.05 2.07 2.01 1.91 1.93 2.05 2.22 2.24 2.32 2.44 2.52 2.46 2.57 2.38 1.98 1.85 2.15 2.10 1.95 1.74 1.38 1.33 1.41 1.58 1.63 1.67 1.65 1.48 1.24 1.21
0.26 0.24 0.31 0.40 0.63 1.01 1.35 1.57 1.81 2.17 2.22 2.13 2.14 2.12 2.12 2.14 2.10 2.18 2.20 2.33 2.34 2.36 2.47 2.57 2.53 2.68 2.77 2.38 2.07 1.86 1.71 1.72 1.86 1.68 1.47 1.43 1.59 1.62 1.62 1.64 1.67 1.50 1.33
0.31 0.31 0.36 0.49 0.71 1.01 1.24 1.50 1.86 2.11 2.18 2.27 2.17 2.12 2.12 2.19 2.21 2.25 2.32 2.50 2.48 2.46 2.45 2.65 2.70 2.80 2.73 2.65 2.50 2.32 2.16 1.92 1.58 1.70 1.77 1.64 1.54 1.44 1.49 1.62 1.77 1.72 1.56
0.37 0.42 0.52 0.68 0.81 1.03 1.24 1.48 1.67 1.90 2.02 2.12 2.18 2.10 2.08 2.14 2.24 2.14 2.06 2.21 2.28 2.32 2.32 2.50 2.67 2.81 2.79 2.81 2.73 2.44 2.39 2.26 1.91 1.85 1.75 1.66 1.68 1.49 1.42 1.50 1.57 1.57 1.58

GEFSSE_prec_meanprecacc_222.txt.gz
Total_Precipitation_Accumulation
1.41 1.24 2.06 2.23 2.00 1.76 1.67 1.60 1.63 1.64 1.64 1.68 1.51 1.27 1.12 1.04 0.99 0.91 0.78 0.70 0.78 0.80 0.76 0.73 0.71 0.70 0.67 0.66 0.65 0.68 0.76 0.87 0.91 0.94 0.99 1.04 0.97 0.99 1.26 1.58 1.75 2.03 1.68
1.15 1.23 2.13 2.31 2.02 1.67 1.53 1.53 1.65 1.64 1.66 1.59 1.52 1.32 1.18 1.05 0.95 0.85 0.70 0.61 0.63 0.68 0.66 0.71 0.76 0.78 0.79 0.82 0.86 0.89 0.88 0.86 0.97 1.06 1.20 1.26 1.16 1.12 1.13 1.43 1.57 1.87 1.70
1.19 1.29 1.87 2.38 2.11 1.80 1.59 1.58 1.69 1.64 1.70 1.58 1.51 1.33 1.18 1.03 0.96 0.87 0.73 0.68 0.70 0.66 0.63 0.68 0.82 0.84 0.89 0.90 0.95 1.02 0.99 0.95 1.05 1.23 1.60 2.21 1.66 1.29 1.27 1.37 1.45 1.41 1.54
1.12 1.19 1.65 2.40 2.08 1.90 1.79 1.78 1.71 1.69 1.76 1.57 1.44 1.28 1.16 1.07 1.04 1.01 1.06 1.08 0.92 0.74 0.69 0.69 0.83 0.85 0.83 0.89 0.98 0.97 0.94 0.99 1.18 1.27 1.67 2.25 2.07 1.44 1.43 1.51 1.55 1.35 1.41
1.14 1.28 1.93 2.39 2.05 1.88 1.84 1.82 1.73 1.79 1.78 1.58 1.36 1.16 1.09 1.12 1.23 1.30 1.29 1.16 0.94 0.78 0.73 0.74 0.81 0.86 0.82 0.79 0.90 0.95 0.97 1.04 1.18 1.20 1.62 2.15 2.36 1.84 1.49 1.50 1.54 1.41 1.42
1.34 1.35 1.94 2.34 2.10 1.90 1.86 1.79 1.73 1.73 1.76 1.66 1.37 1.17 1.10 1.12 1.13 1.16 1.19 1.11 0.94 0.82 0.72 0.78 0.86 0.86 0.83 0.83 0.86 0.94 0.97 1.04 1.00 1.21 1.65 1.99 2.27 1.83 1.39 1.38 1.55 1.53 1.54
1.28 1.34 1.69 2.12 1.97 1.75 1.71 1.74 1.77 1.76 1.73 1.67 1.41 1.27 1.25 1.19 1.07 1.07 1.07 1.01 0.86 0.76 0.72 0.79 0.85 0.87 0.84 0.88 0.85 0.84 0.92 0.84 0.75 1.11 1.48 1.84 1.85 1.63 1.40 1.45 1.63 1.62 1.70
1.27 1.25 1.45 1.86 1.94 1.76 1.67 1.63 1.68 1.70 1.72 1.64 1.34 1.22 1.18 1.17 1.10 1.03 1.02 0.98 0.86 0.85 0.84 0.80 0.81 0.86 0.89 0.88 0.86 0.85 0.86 0.70 0.60 0.86 1.20 1.60 1.74 1.67 1.52 1.49 1.63 1.72 1.85
1.42 1.35 1.39 1.60 1.74 1.96 1.95 1.81 1.75 1.68 1.65 1.60 1.35 1.23 1.17 1.05 0.93 0.88 0.87 0.84 0.84 0.90 0.86 0.79 0.77 0.77 0.82 0.87 0.87 0.88 0.85 0.70 0.65 0.84 0.87 1.33 1.64 1.71 1.59 1.55 1.61 1.71 1.89
1.48 1.41 1.33 1.42 1.46 1.61 1.78 1.92 1.91 1.81 1.72 1.65 1.42 1.30 1.22 1.01 0.86 0.83 0.75 0.76 0.80 0.93 1.01 0.92 0.85 0.84 0.86 0.92 0.93 0.90 0.87 0.68 0.62 0.70 0.90 1.09 1.60 1.70 1.57 1.59 1.60 1.62 1.75
1.33 1.23 1.15 1.21 1.34 1.46 1.68 1.86 1.98 1.91 1.84 1.70 1.48 1.37 1.24 0.93 0.79 0.78 0.73 0.89 0.89 0.95 1.03 1.05 1.07 1.05 0.96 0.91 0.96 0.88 0.69 0.63 0.76 0.81 0.90 1.12 1.65 1.78 1.69 1.62 1.65 1.60 1.56
1.32 1.18 0.98 1.00 1.10 1.22 1.35 1.77 1.79 1.56 1.49 1.39 1.51 1.39 1.21 1.12 0.97 0.68 0.73 0.95 1.10 1.13 1.09 1.05 1.15 1.02 0.80 0.68 0.74 0.68 0.52 0.59 0.72 0.76 0.80 1.29 1.73 1.75 1.58 1.55 1.63 1.53 1.43
1.19 1.11 0.95 0.88 0.86 0.86 0.95 1.22 1.39 1.42 1.47 1.37 1.31 1.24 1.21 1.09 0.90 0.75 0.78 0.77 0.81 0.88 0.82 0.84 0.83 0.70 0.63 0.65 0.67 0.55 0.49 0.58 0.67 0.77 0.90 1.45 1.85 1.82 1.57 1.47 1.54 1.49 1.44
0.98 0.99 0.92 0.75 0.67 0.62 0.65 0.72 0.85 1.03 1.16 1.18 1.02 0.94 1.00 1.02 0.91 0.76 0.75 0.73 0.72 0.76 0.88 0.91 0.91 0.84 0.78 0.75 0.70 0.71 0.69 0.72 0.75 0.84 1.07 1.40 1.88 1.90 1.75 1.63 1.62 1.60 1.56
0.91 0.92 0.82 0.67 0.66 0.62 0.61 0.61 0.59 0.80 0.98 1.09 1.10 0.95 0.90 0.91 0.90 0.83 0.70 0.69 0.65 0.68 0.76 0.81 0.85 0.91 0.97 0.92 0.89 0.93 0.96 0.91 0.82 0.80 0.99 1.29 1.79 2.19 2.20 2.06 1.86 1.81 1.77
0.75 0.85 0.79 0.74 0.76 0.69 0.60 0.58 0.58 0.68 0.80 0.85 1.02 1.03 0.95 0.87 0.82 0.85 0.80 0.79 0.78 0.77 0.77 0.76 0.76 0.91 0.97 1.01 0.99 0.97 0.95 0.85 0.83 0.91 1.07 1.15 1.24 1.64 2.30 2.42 2.30 2.14 2.01
0.67 0.69 0.66 0.66 0.73 0.73 0.71 0.66 0.64 0.74 0.78 0.82 0.87 0.87 0.93 0.84 0.76 0.82 0.85 0.84 0.84 0.85 0.84 0.86 0.88 0.98 0.99 1.07 1.11 0.98 0.92 0.87 0.83 0.89 0.98 1.08 0.91 0.96 1.51 2.15 2.38 2.25 2.21
0.60 0.59 0.61 0.56 0.65 0.76 0.81 0.81 0.83 0.86 0.89 0.96 0.91 0.85 0.84 0.79 0.75 0.84 0.87 0.90 0.95 0.87 0.85 0.94 1.01 1.10 1.10 1.18 1.20 1.03 0.86 0.95 0.89 0.89 1.02 1.06 1.03 0.96 1.11 1.37 1.67 1.90 2.26
0.59 0.59 0.63 0.61 0.66 0.75 0.80 0.89 0.97 1.04 1.11 1.23 1.18 1.13 1.05 0.93 0.93 1.00 1.05 1.07 1.09 1.10 1.03 0.94 0.99 1.12 1.24 1.29 1.15 1.06 0.95 0.96 0.98 0.95 1.13 1.16 1.14 1.13 1.19 1.11 1.15 1.35 1.79
0.67 0.61 0.65 0.72 0.77 0.88 1.03 1.20 1.38 1.49 1.64 1.83 1.76 1.62 1.41 1.23 1.20 1.31 1.30 1.23 1.30 1.41 1.45 1.25 1.31 1.28 1.25 1.35 1.19 1.12 1.10 1.04 1.04 1.11 1.16 1.29 1.42 1.27 1.27 1.20 1.10 0.95 1.22
0.65 0.61 0.60 0.65 0.73 0.84 1.04 1.33 1.72 1.94 2.07 2.07 2.08 1.98 1.75 1.52 1.53 1.72 1.70 1.66 1.67 1.67 1.64 1.58 1.74 1.69 1.43 1.35 1.55 1.54 1.38 1.21 1.16 1.15 1.21 1.45 1.57 1.49 1.51 1.43 1.31 1.14 1.03
0.51 0.50 0.61 0.62 0.68 0.81 1.07 1.34 1.65 1.99 2.06 2.06 2.07 2.03 1.91 1.76 1.76 1.81 2.02 2.12 2.09 2.22 2.20 2.02 2.17 2.20 1.83 1.58 1.86 2.19 1.91 1.68 1.28 1.19 1.32 1.38 1.48 1.57 1.61 1.48 1.33 1.22 1.18
0.41 0.35 0.46 0.55 0.68 0.95 1.27 1.53 1.70 1.96 2.04 2.08 2.04 2.06 2.08 2.02 1.92 1.95 2.07 2.23 2.24 2.33 2.45 2.53 2.46 2.57 2.39 1.98 1.85 2.16 2.11 1.96 1.75 1.40 1.34 1.43 1.59 1.64 1.67 1.65 1.48 1.24 1.21
0.35 0.30 0.34 0.43 0.66 1.03 1.37 1.58 1.81 2.17 2.22 2.13 2.14 2.12 2.13 2.15 2.11 2.20 2.23 2.35 2.35 2.36 2.48 2.58 2.53 2.69 2.77 2.38 2.08 1.87 1.72 1.73 1.87 1.71 1.49 1.45 1.60 1.63 1.63 1.65 1.68 1.51 1.34
0.39 0.39 0.40 0.51 0.74 1.04 1.27 1.54 1.89 2.12 2.20 2.28 2.17 2.13 2.13 2.19 2.21 2.26 2.34 2.52 2.49 2.47 2.46 2.67 2.71 2.81 2.74 2.66 2.51 2.34 2.17 1.93 1.61 1.74 1.80 1.66 1.55 1.45 1.50 1.63 1.79 1.73 1.56
0.40 0.45 0.55 0.70 0.84 1.07 1.28 1.53 1.72 1.93 2.04 2.14 2.20 2.11 2.09 2.15 2.25 2.14 2.08 2.25 2.29 2.33 2.33 2.52 2.69 2.82 2.80 2.82 2.74 2.45 2.40 2.28 1.95 1.91 1.78 1.68 1.69 1.50 1.43 1.52 1.57 1.57 1.59